LFBL

Limoges-Bellegarde Airport

Airport
ICAO code
LFBL
Summary
ICAO Region
EUR
ICAO Territory
Location

Limoges, Limousin, France,

Coordinates
45° 51' 46" N , 1° 10' 46" E
KCC
Metar
LFBL 191200Z AUTO 25007KT 220V320 CAVOK 13/02 Q1022 NOSIG

Description

International airport 6 km west-northwest of Limoges, France.

Climatology

Temperate Marine climate/Oceanic climate (Köppen climate classification Cfb). Moderately cool summer and comparatively warm winter with a temperature range of only 14°C. Prevailing south-westerly winds from the Atlantic Ocean.

Runways

Designator Length Width Surface Rops
3/21 2500 45 ASP Yes/Yes

Airport map

Aerial View

Airport accidents

SKYbrary Partners:

Safety knowledge contributed by: